Wind_Speed
48 46 44 43 39 36 34 33 33 31 28 25 21 20 19 17 15 16 18 18 17 17 18 17 15 13 12 13 13 13 14 14 12 11 9 7 6 5 6 7 7 6 4 3 3 4 4 4 4 4 5 6 6 7 7 8 8 9 10 11 12 13 13
49 47 45 43 42 39 37 37 37 35 30 27 22 20 19 17 14 17 19 18 18 17 18 19 18 16 15 14 14 15 15 15 15 14 12 11 9 8 7 7 7 7 6 4 2 2 3 3 3 3 4 5 6 7 7 8 8 9 10 12 14 15 15
49 47 45 42 40 39 38 39 38 35 31 28 23 20 19 15 13 18 20 18 18 17 18 20 19 17 16 16 15 16 17 16 16 16 15 14 13 11 9 9 8 8 7 6 4 2 1 2 2 2 3 4 5 6 8 8 9 9 9 11 13 15 16
52 49 45 38 36 39 40 40 38 35 31 27 23 22 20 17 18 23 23 18 18 19 19 22 22 18 17 17 16 16 17 17 17 18 18 17 15 13 12 11 10 9 8 7 6 3 1 0 1 2 2 2 3 5 7 8 9 9 10 11 13 14 15
55 52 45 36 36 42 45 43 40 36 33 29 24 21 21 22 23 25 25 23 23 23 22 22 22 20 19 18 17 16 18 18 17 17 18 18 17 15 14 13 12 10 9 8 7 6 3 1 0 1 1 2 2 4 5 7 8 9 9 10 11 13 14
59 56 51 46 46 48 49 46 42 39 37 32 27 21 21 28 29 26 28 30 27 24 24 23 22 21 19 17 16 17 18 18 18 18 19 20 19 18 17 15 13 12 10 9 9 7 6 4 2 1 1 2 2 3 4 5 7 8 9 9 10 11 12
63 61 58 57 57 54 53 51 46 45 42 37 33 28 27 33 34 29 29 31 29 27 27 26 24 20 18 17 17 17 18 19 19 19 20 21 21 21 19 18 16 15 13 11 10 9 8 6 4 3 2 2 3 3 4 5 5 6 7 8 9 11 12
66 65 62 61 61 59 59 56 52 50 46 42 40 36 33 36 35 32 31 30 31 31 29 27 24 21 19 19 19 17 18 19 20 20 20 22 23 23 23 21 20 18 17 15 13 11 10 9 7 6 4 4 4 4 5 5 5 5 6 7 8 10 11
68 67 65 64 64 62 61 58 55 52 48 46 45 40 37 39 38 35 33 31 32 32 31 30 27 23 21 20 19 17 17 19 20 19 19 21 23 24 25 24 23 22 20 19 17 15 14 12 10 9 7 6 6 6 6 6 6 6 6 6 7 9 10
71 69 67 66 66 64 63 60 57 54 51 50 49 45 42 42 40 35 32 33 32 31 31 31 29 26 22 18 16 16 17 19 20 20 20 22 24 25 26 26 26 25 24 23 22 20 18 15 13 11 10 9 9 9 9 8 8 7 6 6 7 8 9
71 70 69 68 67 66 64 62 59 57 54 53 54 53 50 48 43 37 33 33 32 30 31 31 28 25 20 15 15 17 20 21 22 23 24 24 25 26 27 28 28 28 27 26 25 24 22 20 17 15 13 13 12 12 11 11 10 9 7 7 7 8 9
72 71 70 69 68 67 65 64 61 58 56 55 54 54 53 51 48 43 38 35 33 33 33 32 29 24 18 13 13 15 19 21 22 24 26 26 26 26 28 28 28 29 30 30 29 28 26 25 22 20 18 17 16 15 14 14 13 11 10 9 9 9 10
73 72 71 70 69 68 66 64 62 60 57 56 53 51 50 49 48 45 41 38 37 37 36 34 30 25 19 14 10 11 17 22 24 26 27 28 28 27 29 29 28 29 30 31 31 31 30 28 27 25 24 22 21 19 18 17 16 15 13 12 11 11 11
74 73 73 72 70 69 67 65 64 61 59 57 54 51 50 50 49 47 43 41 41 40 40 39 34 28 25 18 12 12 17 23 27 28 28 29 30 29 29 29 29 29 29 30 32 32 32 31 30 29 28 27 26 24 22 21 19 18 16 15 14 13 13
76 75 74 73 72 71 69 67 65 63 61 60 57 55 53 52 51 49 45 43 44 44 44 44 39 34 31 25 18 18 20 23 28 29 28 29 30 30 29 29 29 28 28 29 31 32 32 32 31 31 30 29 28 27 26 24 22 21 19 18 17 16 16
77 76 75 74 73 71 70 69 67 65 63 62 60 58 57 55 54 52 48 45 46 47 46 45 41 38 36 30 25 25 26 27 30 31 29 29 29 29 31 31 30 29 28 29 29 31 32 32 32 31 31 30 29 29 28 27 25 23 22 21 20 19 18
78 77 76 75 74 73 71 70 68 67 65 63 62 60 59 57 56 54 51 48 48 49 49 46 43 43 42 38 35 34 33 33 35 35 33 33 33 33 35 34 30 28 28 27 27 28 30 31 31 30 30 30 30 30 30 29 27 25 24 23 22 21 20
80 79 78 76 75 74 73 72 70 68 66 64 63 62 60 58 56 55 53 51 51 52 52 51 47 45 44 43 42 41 37 35 37 38 36 34 34 37 37 34 30 28 28 28 28 29 30 30 29 28 28 29 29 30 31 30 28 26 25 25 24 23 22
82 81 79 78 77 76 74 73 72 70 68 66 64 63 61 59 57 55 54 53 52 54 56 57 55 53 51 48 45 43 41 40 38 38 39 37 36 38 37 34 31 30 30 31 31 31 31 30 28 27 26 27 28 29 30 30 29 27 27 26 26 25 24
84 83 82 80 79 77 76 75 73 72 70 68 67 65 63 61 59 57 55 54 54 54 56 58 59 59 58 56 52 49 48 47 44 41 41 40 39 40 39 35 33 33 32 34 34 34 33 31 29 28 26 25 27 28 29 30 30 28 28 27 27 26 25
88 86 84 82 81 79 78 77 76 74 72 71 69 67 65 63 61 59 58 56 55 55 55 56 57 58 58 57 56 54 52 52 51 49 47 44 42 41 40 38 39 39 37 37 37 37 35 33 30 29 28 25 24 26 28 30 30 30 28 28 28 28 27
91 89 87 85 84 82 81 80 78 76 75 73 72 70 68 66 64 62 60 58 57 56 56 55 56 57 57 56 55 54 53 52 52 53 52 50 46 42 40 41 43 43 41 40 40 39 39 37 34 33 30 27 25 25 26 28 29 30 29 28 28 28 28
93 91 90 88 86 85 84 82 81 79 77 76 74 72 70 68 66 64 63 61 59 57 57 56 56 56 57 57 55 55 54 52 50 52 54 55 51 45 43 44 46 44 42 42 42 42 41 41 40 38 35 32 30 28 27 26 27 28 29 29 29 29 30
95 93 92 91 89 88 87 86 84 82 80 79 77 76 74 71 69 67 65 63 62 60 58 58 57 56 56 56 56 56 55 53 51 52 54 57 55 50 46 46 46 45 44 45 44 44 43 42 43 42 39 37 34 31 28 26 26 26 27 27 27 29 31
97 97 96 94 93 92 91 89 87 85 84 82 81 79 77 75 73 70 69 67 64 63 61 60 59 57 57 57 56 56 55 55 54 53 54 57 59 56 51 49 47 46 47 47 47 46 45 43 43 43 42 40 37 34 31 29 27 27 27 26 26 28 31
100 100 99 98 96 96 95 92 90 89 87 86 84 83 80 79 77 75 73 70 68 66 64 63 61 59 58 58 57 56 56 56 56 55 55 58 62 61 57 54 51 48 47 47 47 47 45 43 43 44 44 42 40 39 36 32 28 26 26 25 25 27 29
103 103 102 101 100 99 97 95 94 93 91 90 88 86 84 82 81 79 77 74 72 70 68 66 65 63 61 60 59 58 57 57 57 56 56 59 62 62 61 60 57 53 51 49 47 46 45 43 43 45 45 43 42 41 37 30 25 25 27 27 27 28 29
106 105 104 103 102 102 100 98 98 97 95 94 92 90 88 86 85 83 81 78 75 73 71 70 68 66 64 62 61 60 59 59 58 58 57 59 62 63 62 61 60 58 57 54 51 48 46 44 44 45 46 45 44 42 37 31 29 33 37 38 36 34 33
109 107 106 105 104 103 103 102 101 100 98 97 95 93 92 90 88 87 85 82 80 77 75 73 72 70 68 66 64 63 62 61 61 60 60 60 62 64 63 62 61 59 60 59 56 51 48 47 46 45 45 46 45 43 41 41 43 46 48 46 41 37 34
111 110 109 108 107 106 105 105 104 103 101 100 98 97 95 94 92 91 89 86 84 82 80 77 75 73 71 70 68 66 66 65 64 64 63 62 62 65 66 66 63 60 59 60 59 54 50 48 47 45 44 46 46 45 46 49 51 50 49 46 41 37 34
114 113 112 111 110 109 108 107 106 105 104 102 101 100 99 98 96 94 93 91 89 86 84 81 79 77 75 73 72 70 69 68 67 67 66 66 65 66 67 69 67 64 61 60 60 58 54 51 48 44 43 45 47 47 48 51 53 53 51 48 44 41 38
117 116 115 114 113 112 111 110 109 108 107 105 104 103 102 101 100 98 96 95 93 90 88 85 83 81 78 77 75 74 73 72 71 70 69 69 68 68 68 69 69 68 65 63 63 61 59 55 52 47 45 45 47 49 50 52 54 54 53 52 50 48 44
118 118 118 117 116 116 115 114 112 111 110 109 107 106 104 104 103 101 100 98 96 94 92 90 87 85 83 80 79 78 77 76 75 74 73 72 72 72 71 71 71 70 69 67 66 65 62 59 57 54 52 51 49 50 51 53 55 55 55 55 54 52 49
120 120 121 120 120 119 118 117 116 115 114 112 110 109 107 106 106 104 103 101 99 97 95 94 91 89 87 85 82 81 80 80 79 78 77 76 75 75 75 75 74 73 72 70 69 68 67 64 61 60 59 57 55 54 53 54 54 55 56 57 56 54 52
123 123 122 122 122 121 121 120 119 118 117 116 115 113 111 109 108 108 106 104 102 100 98 97 95 93 91 89 87 84 83 82 82 82 81 80 79 78 78 78 77 77 76 75 73 72 71 70 66 64 64 63 61 60 58 57 56 55 55 56 56 55 55
125 125 124 124 124 124 123 123 122 121 120 119 118 117 115 113 112 111 109 108 106 104 102 100 98 96 95 93 90 88 86 85 84 84 84 83 83 82 81 81 80 79 79 79 78 76 75 75 73 70 69 68 67 66 64 63 62 58 56 55 54 54 56
126 126 126 126 126 126 126 125 125 124 123 122 122 121 119 118 116 114 113 111 109 107 105 103 101 100 98 96 94 92 89 87 87 86 87 87 86 86 85 84 83 82 81 81 81 80 79 78 78 77 75 73 72 71 69 68 67 64 60 58 55 53 55
127 127 128 128 128 128 128 128 127 126 126 125 125 124 123 121 120 118 116 115 113 111 109 107 105 103 101 100 97 95 93 91 89 88 89 89 89 89 88 87 86 85 84 83 83 83 82 81 81 81 80 78 76 75 74 73 72 69 66 64 60 56 55
Wind_Direction
237 236 236 237 238 242 251 261 264 265 265 261 271 292 290 283 284 281 283 283 278 282 284 277 270 255 238 233 232 231 226 219 210 205 203 198 191 186 172 158 148 137 126 106 76 71 69 62 56 47 36 17 3 358 5 17 22 23 22 18 15 17 19
235 234 234 236 240 246 255 262 263 263 260 255 266 285 280 271 279 284 281 277 275 277 276 272 269 260 245 234 230 231 230 223 214 209 207 203 197 188 175 167 161 153 144 136 119 88 66 55 51 48 40 26 8 356 359 8 13 17 19 19 15 13 14
235 234 232 236 245 248 250 254 256 259 258 256 265 279 269 251 259 269 264 265 275 273 265 266 266 258 249 239 232 231 233 230 220 213 211 208 202 195 183 176 170 162 157 155 158 157 81 46 41 37 34 27 11 358 356 2 8 11 14 15 13 12 12
236 235 233 237 247 247 244 246 251 254 254 256 263 267 259 237 231 242 240 242 262 257 248 258 262 258 255 247 238 235 236 237 230 223 219 213 208 204 196 188 184 177 169 165 165 172 178 50 27 21 18 15 3 353 351 356 3 5 7 10 11 12 12
235 236 233 231 239 246 247 247 249 249 249 255 259 257 259 251 238 240 241 238 246 246 241 252 259 260 261 253 243 241 241 242 240 233 227 222 216 213 209 204 200 196 185 174 168 168 177 193 288 351 346 347 344 340 341 348 355 359 3 7 11 13 12
234 235 233 230 233 241 247 247 247 247 248 251 253 250 256 254 245 244 248 245 246 249 248 250 255 257 257 251 245 241 240 242 242 237 232 227 222 219 217 215 217 217 208 192 181 175 175 184 200 247 297 307 310 318 323 333 343 350 357 2 7 10 8
235 236 235 234 235 238 241 243 242 245 247 246 246 244 242 244 245 247 250 248 244 246 249 251 254 250 242 243 247 243 236 234 234 235 234 229 226 224 222 221 223 230 230 218 202 192 189 191 197 210 241 268 281 290 301 312 325 335 344 351 356 1 0
235 236 236 236 237 238 239 240 240 242 245 245 245 244 236 233 239 245 247 246 243 243 245 246 246 240 233 240 247 247 246 238 231 233 236 234 230 226 224 223 223 229 237 237 226 214 209 208 206 209 223 240 259 271 278 289 300 312 325 335 341 348 351
235 236 236 237 238 239 239 240 240 240 242 243 243 242 234 229 235 242 243 240 241 244 244 240 239 237 237 242 244 244 248 240 232 235 242 242 239 233 227 225 224 227 234 240 240 233 226 222 219 219 224 231 242 254 262 270 280 290 304 315 323 333 340
234 235 236 237 238 239 240 240 241 239 239 241 242 240 235 232 235 240 239 235 237 242 240 235 236 237 237 238 236 234 235 234 236 244 250 250 248 242 235 229 227 228 231 235 241 242 239 235 233 234 236 237 238 243 250 257 266 274 283 294 305 315 323
233 234 235 237 238 239 240 240 240 240 238 238 240 241 239 238 239 240 239 235 235 238 236 231 231 234 234 233 231 234 238 242 247 252 254 253 251 249 244 236 231 230 231 234 238 242 245 245 244 245 246 248 245 245 247 250 255 260 266 274 285 297 305
234 235 235 236 238 239 240 240 240 240 239 238 240 241 242 242 241 241 240 236 236 238 235 231 231 230 231 231 230 240 250 253 253 254 254 253 250 251 250 243 237 233 233 235 238 241 245 248 251 253 255 257 256 253 252 250 250 252 253 259 268 278 288
235 236 236 237 238 238 239 240 240 239 239 239 239 240 242 242 242 242 239 234 235 236 232 232 232 227 226 229 227 240 255 259 258 256 256 254 251 250 250 248 244 240 237 237 240 242 245 248 252 256 260 262 262 261 260 256 253 251 250 252 257 264 273
234 235 236 237 238 238 239 239 240 240 239 239 238 239 242 243 243 243 239 233 232 233 231 233 234 227 219 218 217 229 244 253 255 252 252 253 251 248 248 248 247 245 243 242 243 244 246 248 252 256 259 261 263 264 264 263 259 255 251 251 253 257 262
234 235 236 237 238 239 239 240 240 240 240 240 239 239 241 242 242 242 240 234 231 232 233 234 235 227 215 211 216 225 232 241 246 246 246 251 253 252 252 251 248 247 246 245 246 248 249 250 251 253 256 258 260 262 263 264 262 259 255 252 253 256 258
234 235 236 237 238 239 240 240 240 241 241 240 240 240 240 241 241 241 239 235 231 231 232 232 231 222 212 207 211 219 223 230 236 237 236 239 243 246 247 247 246 245 245 245 246 247 248 250 251 252 254 256 257 259 259 260 260 259 257 255 254 257 259
234 234 235 236 238 239 240 240 241 241 241 241 241 241 240 240 240 239 237 234 231 230 230 229 226 221 214 212 215 220 224 230 232 230 228 229 232 233 236 240 243 244 244 246 249 249 247 248 249 250 252 255 256 258 258 257 256 256 255 255 255 257 259
233 234 235 235 236 238 239 240 240 240 240 241 241 241 240 240 240 239 237 234 231 229 228 227 227 225 220 219 223 226 227 230 232 230 228 229 232 232 232 235 239 239 238 240 246 250 248 246 246 246 247 250 252 254 256 256 254 253 252 253 253 255 258
233 234 234 235 236 237 238 238 239 239 239 239 240 240 240 239 238 237 236 234 231 229 229 230 232 233 232 230 231 231 228 228 228 228 227 227 229 232 232 232 236 238 237 236 237 241 243 243 244 244 243 243 245 248 250 252 253 252 250 250 250 252 255
233 234 234 234 235 236 237 238 238 239 239 239 239 239 238 238 237 236 235 234 232 230 230 232 234 237 237 237 236 235 233 231 229 229 230 228 228 234 236 234 236 238 238 237 237 237 239 240 239 240 241 241 242 245 247 248 250 249 248 248 248 250 252
234 234 234 234 235 235 236 237 238 238 238 238 238 238 238 237 235 234 233 232 232 231 231 232 234 236 237 237 237 236 235 233 231 230 232 231 230 234 237 238 238 235 233 236 239 240 240 239 237 237 239 241 245 248 250 250 251 250 249 247 247 248 250
234 234 234 234 234 235 235 236 237 238 238 238 238 238 237 237 236 234 233 231 231 231 231 231 232 234 236 236 236 235 234 234 233 231 231 230 229 231 235 239 239 236 232 235 239 240 240 240 239 238 237 238 242 247 252 255 256 256 255 252 250 250 250
234 235 235 235 235 235 235 236 237 238 238 238 239 238 238 237 236 235 234 232 231 230 230 230 230 232 234 234 234 234 233 232 232 232 231 228 227 227 231 236 240 238 236 237 240 242 241 240 240 240 238 237 238 243 249 255 258 258 259 259 256 254 254
235 235 235 235 236 236 235 236 236 237 238 238 238 239 239 238 237 236 235 234 232 231 230 230 229 230 231 232 232 232 231 230 229 230 230 228 226 226 228 232 237 240 240 240 241 243 243 240 239 241 241 238 239 243 248 253 256 259 261 262 261 260 260
234 235 235 235 236 236 236 236 236 237 238 238 238 239 239 239 238 237 236 235 234 233 232 231 230 229 229 231 231 231 230 229 227 228 229 228 227 227 228 229 233 238 240 242 243 245 246 244 242 243 243 239 239 243 247 250 256 262 264 265 265 265 265
234 234 235 235 235 236 237 237 237 237 238 238 239 239 239 240 240 239 237 236 234 234 234 233 232 230 229 229 230 230 230 230 228 226 226 227 227 229 229 228 230 235 239 241 243 243 244 246 245 245 244 241 239 242 246 250 257 264 268 270 271 270 268
233 234 234 235 235 235 236 237 237 237 238 238 239 239 240 240 241 241 240 238 236 235 234 234 233 232 230 229 229 229 229 229 229 227 226 226 227 228 229 229 231 235 237 239 241 240 241 243 244 244 243 241 240 241 244 249 257 262 264 263 262 261 262
233 233 234 234 235 235 236 236 236 237 237 238 238 239 239 240 241 241 241 241 239 237 235 235 234 234 232 230 229 229 228 229 229 227 226 226 226 227 229 231 233 236 238 239 240 240 240 242 243 242 241 241 241 241 239 240 242 243 245 245 243 240 242
234 234 234 234 235 235 235 236 236 236 237 237 238 239 239 240 240 241 242 242 241 240 238 236 235 234 234 233 231 230 229 228 228 227 226 226 225 225 227 230 233 236 238 240 240 240 241 242 241 242 243 243 243 241 237 235 234 234 236 239 240 239 237
234 234 234 234 234 235 235 235 236 236 236 237 237 238 239 239 240 240 241 242 242 241 240 239 236 235 234 233 232 231 230 228 228 227 226 226 226 225 226 228 231 234 236 238 239 238 240 241 241 243 245 246 244 242 239 237 237 236 237 239 241 242 241
234 234 235 235 235 235 235 236 236 236 236 236 237 237 238 239 239 239 240 241 241 241 241 240 239 237 235 234 233 232 231 230 228 227 227 226 226 225 226 228 230 231 233 235 236 236 237 239 241 243 246 246 245 242 240 240 241 241 241 240 239 238 238
235 235 235 235 235 235 235 236 236 236 236 236 236 236 237 238 238 239 239 240 240 241 241 241 240 239 237 234 233 232 232 231 230 228 227 227 226 226 226 227 229 230 231 233 234 235 236 237 238 239 241 243 244 242 240 240 242 243 243 242 239 239 239
235 235 235 235 235 235 236 236 236 236 237 237 236 236 236 237 238 238 238 239 239 239 240 240 240 240 238 236 234 232 231 231 231 229 228 227 227 227 227 227 228 230 230 231 233 234 235 235 235 235 237 239 241 241 241 240 241 242 243 243 242 241 241
234 235 235 236 235 235 236 236 236 236 237 237 237 237 236 237 237 238 238 238 239 239 239 239 239 239 239 238 236 233 231 230 231 230 229 228 227 227 227 227 228 229 230 229 230 232 233 233 233 234 235 237 238 240 240 240 241 241 243 243 243 242 241
233 234 235 236 236 236 236 236 237 237 237 237 237 237 237 237 237 237 238 238 238 238 238 238 238 238 238 238 236 235 232 230 230 230 229 229 228 228 228 228 228 229 230 230 229 229 231 232 232 233 234 236 237 238 239 240 241 241 242 243 243 243 242
234 234 234 235 236 236 236 236 237 237 237 237 237 237 237 237 237 237 238 238 238 238 238 238 238 238 238 238 237 236 234 232 230 229 229 229 229 228 228 228 229 229 231 231 230 229 229 231 233 233 234 235 237 238 239 240 241 240 240 241 242 243 243
234 234 234 235 235 236 237 237 237 237 237 237 238 238 238 237 237 237 238 238 238 238 238 238 238 238 238 238 237 236 235 233 231 230 229 229 229 229 228 228 229 229 230 231 231 230 230 230 232 234 235 236 237 238 239 241 241 240 239 239 240 241 243
235 235 235 235 235 235 236 237 237 238 238 238 238 238 238 238 238 238 238 238 238 238 238 238 238 238 238 238 237 237 236 234 233 231 230 229 229 229 229 229 229 229 230 230 231 232 231 230 232 234 236 237 238 240 241 241 242 241 240 240 239 239 241
Height
10995 10999 11001 11003 11004 11006 11007 11009 11011 11014 11016 11018 11019 11020 11020 11021 11022 11023 11024 11025 11025 11025 11025 11025 11026 11026 11026 11027 11028 11029 11030 11031 11033 11033 11034 11035 11036 11037 11038 11039 11039 11040 11040 11040 11041 11041 11040 11040 11040 11040 11040 11039 11039 11039 11039 11038 11038 11037 11036 11035 11034 11033 11032
10992 10995 10998 11000 11002 11004 11005 11007 11008 11011 11014 11016 11017 11018 11018 11019 11021 11022 11023 11023 11023 11023 11023 11023 11024 11024 11024 11025 11026 11027 11028 11029 11030 11032 11033 11034 11035 11036 11037 11038 11039 11039 11040 11040 11040 11041 11041 11040 11040 11040 11040 11040 11040 11040 11040 11039 11038 11038 11037 11036 11035 11034 11033
10988 10991 10995 10997 11000 11002 11002 11004 11005 11008 11011 11013 11015 11017 11017 11019 11021 11020 11020 11020 11020 11019 11020 11021 11022 11023 11023 11024 11024 11025 11026 11027 11028 11030 11031 11032 11033 11034 11036 11037 11038 11038 11039 11039 11040 11040 11040 11040 11040 11040 11040 11040 11040 11040 11040 11039 11039 11038 11037 11037 11036 11035 11035
10984 10987 10992 10996 10996 10996 10996 11000 11003 11005 11008 11011 11014 11015 11015 11017 11018 11016 11017 11019 11016 11015 11017 11019 11020 11021 11022 11022 11023 11024 11024 11025 11026 11028 11029 11030 11032 11033 11034 11035 11036 11037 11037 11038 11039 11039 11040 11040 11040 11040 11040 11040 11040 11040 11040 11040 11039 11039 11038 11038 11037 11036 11036
10978 10983 10990 10996 10993 10987 10988 10993 10998 11002 11005 11007 11010 11013 11014 11014 11015 11015 11017 11018 11016 11015 11018 11019 11019 11020 11021 11022 11022 11023 11023 11024 11025 11026 11028 11029 11031 11032 11033 11034 11035 11036 11036 11037 11037 11038 11039 11039 11040 11040 11040 11040 11039 11039 11040 11040 11039 11039 11039 11038 11038 11037 11036
10974 10980 10988 10993 10990 10985 10984 10988 10995 10999 11001 11005 11009 11013 11014 11010 11009 11013 11016 11016 11017 11017 11019 11019 11019 11019 11020 11020 11021 11021 11022 11022 11023 11025 11026 11028 11030 11031 11032 11034 11035 11035 11035 11036 11036 11037 11038 11038 11039 11039 11039 11039 11039 11039 11039 11039 11039 11039 11039 11039 11038 11038 11037
10969 10974 10980 10984 10984 10984 10984 10986 10991 10994 10998 11005 11011 11016 11017 11010 11005 11009 11012 11013 11015 11017 11017 11018 11018 11017 11017 11018 11019 11019 11019 11019 11020 11022 11023 11025 11027 11029 11031 11033 11034 11034 11035 11035 11035 11036 11036 11037 11037 11037 11038 11038 11038 11038 11039 11039 11039 11039 11039 11039 11038 11038 11038
10963 10967 10973 10976 10977 10980 10982 10983 10988 10991 10996 11003 11008 11014 11016 11009 11004 11005 11009 11011 11013 11014 11015 11016 11015 11014 11015 11016 11017 11017 11017 11017 11017 11018 11021 11023 11025 11026 11028 11030 11032 11033 11034 11034 11034 11034 11035 11035 11035 11036 11036 11037 11037 11037 11038 11038 11038 11039 11039 11039 11039 11038 11038
10957 10960 10966 10969 10971 10974 10977 10980 10984 10988 10993 10997 11001 11008 11010 11005 11002 11003 11005 11008 11010 11011 11012 11013 11012 11012 11013 11014 11015 11016 11016 11016 11016 11017 11019 11021 11023 11024 11026 11028 11029 11031 11032 11032 11033 11033 11033 11033 11033 11034 11034 11035 11035 11036 11036 11037 11037 11037 11038 11038 11038 11038 11038
10950 10954 10959 10962 10964 10968 10972 10976 10978 10983 10989 10992 10995 11000 11001 11000 10999 11001 11002 11003 11005 11008 11010 11010 11010 11011 11011 11012 11013 11014 11015 11016 11017 11017 11018 11020 11022 11023 11024 11026 11027 11029 11029 11030 11031 11031 11032 11032 11032 11032 11032 11033 11033 11034 11034 11035 11035 11036 11036 11037 11037 11037 11037
10943 10947 10952 10955 10958 10962 10966 10970 10973 10978 10984 10987 10988 10991 10993 10994 10996 10998 10999 10999 11002 11005 11007 11008 11008 11010 11012 11012 11011 11012 11014 11016 11017 11017 11018 11020 11021 11022 11022 11023 11025 11026 11027 11027 11028 11029 11030 11030 11030 11031 11031 11031 11031 11032 11032 11033 11033 11034 11034 11035 11036 11036 11036
10937 10941 10945 10948 10952 10956 10960 10964 10968 10973 10978 10981 10982 10983 10985 10988 10991 10993 10995 10997 10999 11001 11004 11005 11006 11007 11009 11009 11008 11009 11012 11015 11016 11017 11018 11019 11020 11021 11021 11021 11022 11023 11024 11025 11025 11026 11027 11028 11029 11029 11029 11029 11030 11030 11030 11031 11031 11031 11032 11033 11033 11034 11034
10931 10935 10938 10941 10945 10949 10953 10957 10961 10967 10972 10975 10978 10979 10980 10983 10985 10988 10990 10993 10995 10997 10999 11002 11003 11004 11004 11004 11005 11007 11011 11014 11017 11019 11020 11020 11020 11020 11019 11019 11020 11020 11021 11022 11023 11024 11025 11026 11027 11027 11028 11028 11028 11028 11029 11029 11029 11029 11030 11030 11031 11032 11032
10923 10927 10930 10934 10938 10942 10947 10951 10955 10960 10965 10970 10973 10975 10976 10978 10980 10982 10985 10988 10991 10993 10995 10997 11000 11002 11003 11005 11008 11010 11014 11019 11022 11023 11023 11021 11019 11019 11018 11017 11017 11018 11019 11020 11020 11021 11022 11023 11024 11025 11025 11026 11026 11027 11027 11027 11027 11028 11028 11028 11029 11029 11029
10915 10920 10923 10927 10930 10934 10939 10944 10948 10953 10958 10963 10966 10969 10971 10972 10975 10977 10980 10983 10986 10988 10990 10993 10996 11000 11003 11008 11012 11015 11019 11022 11023 11022 11022 11021 11020 11019 11018 11016 11015 11015 11016 11017 11018 11019 11020 11021 11022 11022 11023 11024 11024 11025 11025 11025 11026 11026 11026 11026 11027 11027 11027
10907 10912 10917 10920 10924 10927 10932 10937 10941 10945 10950 10954 10958 10962 10964 10966 10968 10972 10975 10978 10981 10983 10985 10988 10992 10996 11000 11006 11011 11013 11016 11017 11017 11016 11016 11017 11017 11016 11015 11013 11012 11012 11012 11013 11014 11015 11016 11017 11018 11020 11021 11022 11023 11023 11023 11024 11024 11024 11025 11025 11025 11025 11025
10900 10905 10909 10913 10917 10920 10925 10929 10934 10938 10942 10946 10950 10954 10957 10959 10962 10965 10969 10972 10975 10977 10980 10983 10986 10990 10995 10999 11002 11006 11008 11009 11008 11008 11008 11010 11011 11009 11007 11007 11008 11009 11010 11010 11011 11012 11013 11013 11014 11016 11018 11019 11021 11021 11022 11022 11022 11023 11023 11023 11023 11023 11023
10892 10896 10901 10905 10909 10913 10917 10921 10926 10931 10935 10938 10942 10946 10949 10953 10956 10958 10962 10966 10969 10973 10976 10978 10980 10984 10988 10992 10994 10998 11001 11001 11000 11001 11004 11006 11004 11001 11000 11002 11003 11005 11005 11005 11005 11007 11009 11010 11011 11012 11014 11015 11017 11018 11019 11020 11021 11021 11021 11021 11021 11021 11021
10884 10888 10893 10898 10902 10905 10909 10913 10918 10922 10927 10930 10934 10938 10941 10945 10949 10952 10955 10959 10962 10966 10970 10972 10974 10977 10980 10984 10987 10991 10993 10993 10994 10997 10999 10998 10995 10992 10993 10997 11000 11001 11001 10999 10999 11001 11004 11006 11008 11009 11010 11010 11012 11013 11015 11016 11018 11018 11019 11019 11019 11019 11019
10875 10880 10885 10889 10894 10897 10901 10905 10909 10914 10918 10922 10926 10930 10933 10938 10942 10945 10948 10952 10955 10959 10962 10965 10967 10969 10972 10976 10980 10983 10986 10987 10990 10993 10992 10991 10990 10989 10991 10995 10997 10997 10998 10997 10996 10998 11000 11002 11004 11005 11005 11006 11006 11008 11010 11011 11013 11014 11015 11016 11016 11016 11017
10866 10871 10876 10881 10885 10889 10893 10897 10901 10906 10910 10914 10918 10922 10926 10930 10934 10938 10941 10945 10948 10951 10955 10958 10960 10962 10965 10969 10972 10976 10979 10981 10984 10986 10986 10986 10988 10988 10989 10990 10990 10990 10992 10993 10994 10996 10998 11000 11001 11001 11002 11003 11004 11005 11006 11007 11009 11010 11011 11012 11013 11013 11014
10856 10862 10867 10872 10877 10881 10885 10888 10892 10897 10901 10905 10909 10914 10918 10922 10926 10930 10934 10938 10941 10945 10948 10952 10954 10956 10959 10962 10966 10970 10972 10974 10976 10979 10980 10982 10984 10984 10984 10982 10981 10982 10986 10989 10991 10992 10994 10997 10998 10998 10999 11001 11003 11004 11004 11005 11007 11008 11009 11010 11010 11010 11011
10847 10853 10858 10863 10868 10872 10876 10880 10884 10888 10893 10897 10901 10905 10910 10914 10918 10922 10926 10930 10934 10938 10941 10944 10948 10951 10953 10956 10960 10963 10965 10967 10970 10971 10973 10975 10978 10980 10980 10977 10976 10978 10982 10984 10986 10988 10990 10993 10995 10996 10997 10998 10999 11000 11001 11002 11004 11005 11006 11008 11008 11008 11008
10838 10844 10849 10854 10859 10863 10866 10870 10875 10880 10885 10889 10893 10896 10901 10906 10910 10914 10918 10923 10927 10931 10934 10937 10940 10944 10947 10950 10953 10956 10958 10960 10962 10963 10965 10969 10973 10976 10975 10973 10973 10975 10977 10979 10981 10983 10985 10987 10990 10992 10994 10996 10997 10998 10998 11000 11001 11002 11003 11005 11006 11006 11006
10828 10832 10837 10843 10849 10852 10855 10861 10868 10872 10876 10880 10884 10888 10893 10897 10902 10906 10910 10914 10919 10923 10927 10930 10933 10937 10940 10943 10947 10949 10952 10954 10955 10957 10960 10963 10967 10969 10970 10969 10970 10971 10972 10974 10976 10979 10981 10984 10987 10989 10991 10993 10994 10995 10997 10998 11000 11000 11001 11002 11004 11005 11005
10815 10819 10824 10832 10837 10839 10844 10853 10860 10863 10867 10871 10874 10879 10885 10888 10892 10897 10901 10906 10911 10915 10919 10922 10926 10930 10933 10936 10940 10943 10945 10947 10949 10952 10955 10956 10958 10961 10962 10962 10964 10965 10966 10968 10970 10973 10977 10980 10983 10986 10987 10989 10991 10993 10994 10997 10999 11000 11000 11001 11003 11004 11004
10801 10805 10812 10819 10824 10827 10835 10844 10849 10852 10857 10860 10864 10870 10876 10879 10882 10887 10891 10896 10902 10906 10910 10914 10918 10922 10926 10929 10933 10935 10938 10940 10943 10946 10948 10950 10952 10954 10954 10956 10958 10959 10961 10962 10964 10968 10972 10975 10978 10981 10983 10985 10987 10989 10992 10997 11000 11000 10999 10998 10999 11000 11001
10786 10793 10801 10807 10811 10817 10826 10832 10835 10839 10845 10849 10855 10861 10866 10869 10873 10877 10882 10887 10892 10897 10902 10906 10909 10913 10918 10922 10926 10928 10931 10933 10936 10939 10942 10944 10946 10948 10950 10951 10953 10954 10956 10957 10960 10963 10966 10969 10972 10974 10977 10980 10982 10985 10989 10993 10993 10990 10985 10984 10985 10987 10989
10776 10783 10789 10795 10800 10807 10813 10817 10821 10827 10833 10839 10845 10850 10855 10859 10864 10867 10872 10877 10882 10887 10891 10896 10900 10905 10909 10914 10918 10921 10923 10926 10929 10931 10934 10937 10939 10942 10944 10946 10947 10949 10952 10954 10957 10959 10961 10963 10966 10968 10971 10973 10976 10980 10983 10982 10978 10973 10971 10972 10977 10981 10983
10765 10770 10775 10782 10789 10794 10799 10803 10809 10816 10822 10828 10834 10839 10844 10849 10853 10857 10862 10866 10871 10876 10880 10886 10891 10896 10900 10905 10909 10913 10915 10918 10921 10924 10927 10929 10932 10935 10937 10939 10941 10944 10947 10950 10952 10955 10957 10958 10961 10963 10965 10967 10970 10973 10974 10971 10969 10969 10969 10971 10976 10980 10982
10750 10756 10763 10770 10776 10781 10786 10790 10796 10803 10809 10815 10822 10827 10832 10836 10841 10846 10850 10855 10860 10865 10870 10875 10880 10885 10890 10895 10900 10904 10907 10910 10913 10916 10918 10921 10924 10927 10930 10932 10933 10936 10940 10943 10945 10947 10950 10952 10954 10957 10960 10961 10963 10965 10965 10965 10965 10966 10968 10970 10973 10976 10978
10737 10743 10750 10756 10762 10768 10773 10777 10783 10789 10795 10802 10808 10814 10819 10824 10828 10833 10838 10843 10848 10853 10859 10864 10869 10873 10879 10884 10889 10894 10897 10901 10904 10907 10910 10913 10916 10919 10921 10924 10926 10929 10932 10935 10937 10940 10942 10945 10948 10951 10952 10954 10955 10957 10958 10959 10959 10961 10964 10966 10968 10971 10973
10723 10729 10735 10741 10748 10753 10758 10764 10771 10775 10781 10787 10794 10801 10807 10811 10815 10821 10826 10831 10836 10841 10847 10852 10857 10862 10867 10872 10877 10882 10886 10890 10894 10898 10901 10905 10907 10910 10913 10916 10918 10921 10923 10927 10930 10932 10934 10937 10940 10942 10944 10946 10948 10950 10952 10953 10953 10956 10958 10959 10962 10965 10968
10711 10715 10720 10726 10734 10740 10745 10751 10756 10762 10767 10773 10780 10787 10793 10798 10802 10807 10812 10817 10823 10829 10835 10840 10845 10850 10855 10859 10865 10870 10874 10879 10883 10887 10891 10895 10899 10902 10904 10907 10910 10913 10915 10918 10921 10924 10926 10929 10931 10934 10936 10939 10940 10942 10944 10945 10947 10950 10951 10953 10956 10959 10961
10698 10702 10707 10712 10719 10726 10731 10736 10741 10747 10753 10758 10764 10772 10778 10784 10789 10793 10798 10804 10810 10816 10822 10827 10832 10838 10842 10847 10852 10857 10862 10868 10872 10876 10881 10885 10889 10892 10895 10898 10901 10904 10906 10909 10912 10915 10917 10920 10923 10925 10928 10930 10932 10933 10935 10937 10939 10942 10944 10946 10949 10952 10955
10685 10690 10694 10699 10704 10710 10716 10722 10727 10733 10738 10743 10749 10756 10762 10768 10774 10779 10784 10790 10796 10802 10808 10814 10819 10825 10829 10834 10839 10845 10850 10856 10861 10865 10870 10874 10877 10881 10885 10889 10892 10895 10897 10899 10903 10906 10909 10912 10914 10917 10919 10922 10923 10925 10927 10929 10931 10934 10937 10939 10942 10946 10948
10669 10674 10679 10684 10689 10694 10699 10705 10711 10717 10723 10728 10734 10739 10745 10752 10758 10764 10770 10776 10782 10788 10794 10800 10806 10811 10816 10821 10827 10832 10838 10844 10849 10853 10858 10862 10866 10870 10875 10879 10882 10886 10888 10890 10893 10897 10901 10904 10906 10908 10911 10914 10915 10916 10918 10920 10922 10926 10929 10931 10935 10939 10941
10652 10657 10662 10668 10673 10679 10683 10689 10695 10701 10707 10712 10718 10723 10729 10735 10742 10748 10755 10761 10768 10774 10780 10786 10792 10797 10802 10808 10813 10819 10825 10831 10836 10841 10846 10850 10855 10859 10864 10868 10872 10876 10879 10881 10884 10888 10892 10896 10898 10899 10902 10905 10906 10907 10910 10912 10914 10918 10921 10924 10928 10932 10935